Torna al catalogo

FENGYUN 1C DEB

AttivoSSO
NORAD 30683·DEBRIS·🇨🇳 China

Lanciato May 10, 1999 da Taiyuan Satellite Launch Center

Loading…

Prossimi Passaggi (prossime 24 ore)

TLE

In scadenzaSource: Space-Track

Epoca: Sep 3, 2026, 20:36 UTC

1 30683U 99025AQR 26246.85874758  .00001079  00000-0  69087-3 0  9997
2 30683  99.4061 271.4073 0135588 219.8481 214.9753 14.01303821992631

Traccia FENGYUN 1C DEB in tempo reale con AllMySat

Download on the App Store